Time,TemperatureF,DewpointF,PressureIn,WindDirection,WindDirectionDegrees,WindSpeedMPH,WindSpeedGustMPH,Humidity,HourlyPrecipIn,Conditions,Clouds,dailyrainin,SoftwareType,DateUTC
2014-10-01 00:00:00,64.4,60.8,29.96,ESE,111,0.0,0.0,88,0.00,,,0.00,Wunderground v.1.15,2014-10-01 04:00:00,
2014-10-01 00:02:00,64.3,60.7,29.96,ESE,111,0.0,0.0,88,0.00,,,0.00,Wunderground v.1.15,2014-10-01 04:02:00,
2014-10-01 00:08:00,64.1,60.8,29.96,ESE,111,0.0,0.0,89,0.00,,,0.00,Wunderground v.1.15,2014-10-01 04:08:00,
2014-10-01 00:09:00,64.1,60.8,29.96,ESE,111,0.0,0.0,89,0.00,,,0.00,Wunderground v.1.15,2014-10-01 04:09:00,
2014-10-01 00:15:00,63.9,60.6,29.96,ESE,111,0.0,0.0,89,0.00,,,0.00,Wunderground v.1.15,2014-10-01 04:15:00,
2014-10-01 00:20:00,63.7,60.4,29.96,ESE,111,0.0,0.0,89,0.00,,,0.00,Wunderground v.1.15,2014-10-01 04:20:00,
2014-10-01 00:21:00,63.7,60.4,29.96,ESE,111,0.0,0.0,89,0.00,,,0.00,Wunderground v.1.15,2014-10-01 04:21:00,
2014-10-01 00:26:00,63.6,60.6,29.96,ESE,111,0.0,0.0,90,0.00,,,0.00,Wunderground v.1.15,2014-10-01 04:26:00,
2014-10-01 00:29:00,63.5,60.5,29.96,ESE,111,0.0,0.0,90,0.00,,,0.00,Wunderground v.1.15,2014-10-01 04:29:00,
2014-10-01 00:30:00,63.5,60.5,29.96,ESE,111,0.0,0.0,90,0.00,,,0.00,Wunderground v.1.15,2014-10-01 04:30:00,
2014-10-01 00:33:00,63.4,60.4,29.96,ESE,111,0.0,0.0,90,0.00,,,0.00,Wunderground v.1.15,2014-10-01 04:33:00,
2014-10-01 00:36:00,63.3,60.3,29.96,ESE,111,0.0,0.0,90,0.00,,,0.00,Wunderground v.1.15,2014-10-01 04:36:00,
2014-10-01 00:38:00,63.2,60.5,29.96,ESE,111,0.0,0.0,91,0.00,,,0.00,Wunderground v.1.15,2014-10-01 04:38:00,
2014-10-01 00:39:00,63.2,60.5,29.96,ESE,111,0.0,0.0,91,0.00,,,0.00,Wunderground v.1.15,2014-10-01 04:39:00,
2014-10-01 00:41:00,63.1,60.4,29.96,ESE,111,0.0,0.0,91,0.00,,,0.00,Wunderground v.1.15,2014-10-01 04:41:00,
2014-10-01 00:44:00,63.1,60.4,29.96,ESE,111,0.0,0.0,91,0.00,,,0.00,Wunderground v.1.15,2014-10-01 04:44:00,
2014-10-01 00:45:00,63.0,60.3,29.96,ESE,111,0.0,0.0,91,0.00,,,0.00,Wunderground v.1.15,2014-10-01 04:45:00,
2014-10-01 00:49:00,62.9,60.2,29.96,ESE,111,0.0,0.0,91,0.00,,,0.00,Wunderground v.1.15,2014-10-01 04:49:00,
2014-10-01 00:50:00,62.9,60.2,29.96,ESE,111,0.0,0.0,91,0.00,,,0.00,Wunderground v.1.15,2014-10-01 04:50:00,
2014-10-01 00:54:00,62.8,60.1,29.96,ESE,111,0.0,0.0,91,0.00,,,0.00,Wunderground v.1.15,2014-10-01 04:54:00,
2014-10-01 00:57:00,62.7,60.0,29.96,ESE,111,0.0,0.0,91,0.00,,,0.00,Wunderground v.1.15,2014-10-01 04:57:00,
2014-10-01 01:01:00,62.6,60.2,29.97,ESE,111,0.0,0.0,92,0.00,,,0.00,Wunderground v.1.15,2014-10-01 05:01:00,
2014-10-01 01:04:00,62.5,60.1,29.97,ESE,111,0.0,0.0,92,0.00,,,0.00,Wunderground v.1.15,2014-10-01 05:04:00,
2014-10-01 01:08:00,62.5,60.1,29.97,ESE,111,0.0,0.0,92,0.00,,,0.00,Wunderground v.1.15,2014-10-01 05:08:00,
2014-10-01 01:10:00,62.4,60.0,29.97,ESE,111,0.0,0.0,92,0.00,,,0.00,Wunderground v.1.15,2014-10-01 05:10:00,
2014-10-01 01:13:00,62.3,59.9,29.97,ESE,111,0.0,0.0,92,0.00,,,0.00,Wunderground v.1.15,2014-10-01 05:13:00,
2014-10-01 01:15:00,62.3,59.9,29.97,ESE,111,0.0,0.0,92,0.00,,,0.00,Wunderground v.1.15,2014-10-01 05:15:00,
2014-10-01 01:20:00,62.1,59.7,29.97,ESE,111,0.0,0.0,92,0.00,,,0.00,Wunderground v.1.15,2014-10-01 05:20:00,
2014-10-01 01:21:00,62.1,59.7,29.97,ESE,111,0.0,0.0,92,0.00,,,0.00,Wunderground v.1.15,2014-10-01 05:21:00,
2014-10-01 01:22:00,62.1,59.7,29.97,ESE,111,0.0,0.0,92,0.00,,,0.00,Wunderground v.1.15,2014-10-01 05:22:00,
2014-10-01 01:27:00,62.0,60.0,29.97,ESE,111,0.0,0.0,93,0.00,,,0.00,Wunderground v.1.15,2014-10-01 05:27:00,
2014-10-01 01:28:00,61.9,59.9,29.97,ESE,111,0.0,0.0,93,0.00,,,0.00,Wunderground v.1.15,2014-10-01 05:28:00,
2014-10-01 01:34:00,61.8,59.8,29.97,ESE,111,0.0,0.0,93,0.00,,,0.00,Wunderground v.1.15,2014-10-01 05:34:00,
2014-10-01 01:36:00,61.8,59.8,29.97,ESE,111,0.0,0.0,93,0.00,,,0.00,Wunderground v.1.15,2014-10-01 05:36:00,
2014-10-01 01:37:00,61.7,59.7,29.97,ESE,111,0.0,0.0,93,0.00,,,0.00,Wunderground v.1.15,2014-10-01 05:37:00,
2014-10-01 01:39:00,61.6,59.6,29.97,ESE,111,0.0,0.0,93,0.00,,,0.00,Wunderground v.1.15,2014-10-01 05:39:00,
2014-10-01 01:42:00,61.6,59.6,29.97,ESE,111,0.0,0.0,93,0.00,,,0.00,Wunderground v.1.15,2014-10-01 05:42:00,
2014-10-01 01:43:00,61.6,59.6,29.97,ESE,111,0.0,0.0,93,0.00,,,0.00,Wunderground v.1.15,2014-10-01 05:43:00,
2014-10-01 01:46:00,61.5,59.5,29.97,ESE,111,0.0,0.0,93,0.00,,,0.00,Wunderground v.1.15,2014-10-01 05:46:00,
2014-10-01 01:48:00,61.4,59.4,29.97,ESE,111,0.0,0.0,93,0.00,,,0.00,Wunderground v.1.15,2014-10-01 05:48:00,
2014-10-01 01:49:00,61.4,59.4,29.97,ESE,111,0.0,0.0,93,0.00,,,0.00,Wunderground v.1.15,2014-10-01 05:49:00,
2014-10-01 01:52:00,61.4,59.4,29.98,ESE,111,0.0,0.0,93,0.00,,,0.00,Wunderground v.1.15,2014-10-01 05:52:00,
2014-10-01 01:54:00,61.4,59.4,29.97,ESE,111,0.0,0.0,93,0.00,,,0.00,Wunderground v.1.15,2014-10-01 05:54:00,
2014-10-01 01:55:00,61.3,59.3,29.97,ESE,111,0.0,0.0,93,0.00,,,0.00,Wunderground v.1.15,2014-10-01 05:55:00,
2014-10-01 01:57:00,61.3,59.6,29.98,ESE,111,0.0,0.0,94,0.00,,,0.00,Wunderground v.1.15,2014-10-01 05:57:00,
2014-10-01 02:00:00,61.3,59.6,29.98,ESE,111,0.0,0.0,94,0.00,,,0.00,Wunderground v.1.15,2014-10-01 06:00:00,
2014-10-01 02:02:00,61.2,59.5,29.98,ESE,111,0.0,0.0,94,0.00,,,0.00,Wunderground v.1.15,2014-10-01 06:02:00,
2014-10-01 02:08:00,61.2,59.5,29.98,ESE,111,0.0,0.0,94,0.00,,,0.00,Wunderground v.1.15,2014-10-01 06:08:00,
2014-10-01 02:09:00,61.1,59.4,29.98,ESE,111,0.0,0.0,94,0.00,,,0.00,Wunderground v.1.15,2014-10-01 06:09:00,
2014-10-01 02:13:00,61.1,59.4,29.98,ESE,111,0.0,0.0,94,0.00,,,0.00,Wunderground v.1.15,2014-10-01 06:13:00,
2014-10-01 02:14:00,61.1,59.4,29.98,ESE,111,0.0,0.0,94,0.00,,,0.00,Wunderground v.1.15,2014-10-01 06:14:00,
2014-10-01 02:15:00,61.0,59.3,29.98,ESE,111,0.0,0.0,94,0.00,,,0.00,Wunderground v.1.15,2014-10-01 06:15:00,
2014-10-01 02:20:00,60.9,59.2,29.98,ESE,111,0.0,0.0,94,0.00,,,0.00,Wunderground v.1.15,2014-10-01 06:20:00,
2014-10-01 02:22:00,60.9,59.2,29.98,ESE,111,0.0,0.0,94,0.00,,,0.00,Wunderground v.1.15,2014-10-01 06:22:00,
2014-10-01 02:25:00,60.8,59.1,29.98,ESE,111,0.0,0.0,94,0.00,,,0.00,Wunderground v.1.15,2014-10-01 06:25:00,
2014-10-01 02:30:00,60.8,59.1,29.98,ESE,111,0.0,0.0,94,0.00,,,0.00,Wunderground v.1.15,2014-10-01 06:30:00,
2014-10-01 02:31:00,60.8,59.1,29.98,ESE,111,0.0,0.0,94,0.00,,,0.00,Wunderground v.1.15,2014-10-01 06:31:00,
2014-10-01 02:37:00,60.7,59.0,29.98,ESE,111,0.0,0.0,94,0.00,,,0.00,Wunderground v.1.15,2014-10-01 06:37:00,
2014-10-01 02:42:00,60.6,58.9,29.98,ESE,111,0.0,0.0,94,0.00,,,0.00,Wunderground v.1.15,2014-10-01 06:42:00,
2014-10-01 02:44:00,60.6,58.9,29.98,ESE,111,0.0,0.0,94,0.00,,,0.00,Wunderground v.1.15,2014-10-01 06:44:00,
2014-10-01 02:48:00,60.5,58.8,29.98,ESE,111,0.0,0.0,94,0.00,,,0.00,Wunderground v.1.15,2014-10-01 06:48:00,
2014-10-01 02:49:00,60.5,58.8,29.98,ESE,111,0.0,0.0,94,0.00,,,0.00,Wunderground v.1.15,2014-10-01 06:49:00,
2014-10-01 02:51:00,60.5,58.8,29.98,ESE,111,0.0,0.0,94,0.00,,,0.00,Wunderground v.1.15,2014-10-01 06:51:00,
2014-10-01 02:56:00,60.4,58.7,29.98,ESE,111,0.0,0.0,94,0.00,,,0.00,Wunderground v.1.15,2014-10-01 06:56:00,
2014-10-01 02:58:00,60.4,59.0,29.98,ESE,111,0.0,0.0,95,0.00,,,0.00,Wunderground v.1.15,2014-10-01 06:58:00,
2014-10-01 03:00:00,60.4,59.0,29.98,ESE,111,0.0,0.0,95,0.00,,,0.00,Wunderground v.1.15,2014-10-01 07:00:00,
2014-10-01 03:05:00,60.3,58.6,29.98,ESE,111,0.0,0.0,94,0.00,,,0.00,Wunderground v.1.15,2014-10-01 07:05:00,
2014-10-01 03:06:00,60.2,58.5,29.98,ESE,111,0.0,0.0,94,0.00,,,0.00,Wunderground v.1.15,2014-10-01 07:06:00,
2014-10-01 03:11:00,60.1,58.4,29.98,ESE,111,0.0,0.0,94,0.00,,,0.00,Wunderground v.1.15,2014-10-01 07:11:00,
2014-10-01 03:12:00,60.0,58.3,29.98,ESE,111,0.0,0.0,94,0.00,,,0.00,Wunderground v.1.15,2014-10-01 07:12:00,
2014-10-01 03:13:00,60.0,58.3,29.98,ESE,111,0.0,0.0,94,0.00,,,0.00,Wunderground v.1.15,2014-10-01 07:13:00,
2014-10-01 03:18:00,59.9,58.2,29.98,ESE,111,0.0,0.0,94,0.00,,,0.00,Wunderground v.1.15,2014-10-01 07:18:00,
2014-10-01 03:24:00,59.7,58.0,29.98,ESE,111,0.0,0.0,94,0.00,,,0.00,Wunderground v.1.15,2014-10-01 07:24:00,
2014-10-01 03:29:00,59.6,58.2,29.98,ESE,111,0.0,0.0,95,0.00,,,0.00,Wunderground v.1.15,2014-10-01 07:29:00,
2014-10-01 03:35:00,59.5,58.1,29.98,ESE,111,0.0,0.0,95,0.00,,,0.00,Wunderground v.1.15,2014-10-01 07:35:00,
2014-10-01 03:38:00,59.5,58.1,29.98,ESE,111,0.0,0.0,95,0.00,,,0.00,Wunderground v.1.15,2014-10-01 07:38:00,
2014-10-01 03:42:00,59.5,58.1,29.97,ESE,111,0.0,0.0,95,0.00,,,0.00,Wunderground v.1.15,2014-10-01 07:42:00,
2014-10-01 03:43:00,59.5,58.1,29.97,ESE,111,0.0,0.0,95,0.00,,,0.00,Wunderground v.1.15,2014-10-01 07:43:00,
2014-10-01 03:44:00,59.4,58.0,29.97,ESE,111,0.0,0.0,95,0.00,,,0.00,Wunderground v.1.15,2014-10-01 07:44:00,
2014-10-01 03:46:00,59.4,58.0,29.97,ESE,111,0.0,0.0,95,0.00,,,0.00,Wunderground v.1.15,2014-10-01 07:46:00,
2014-10-01 03:50:00,59.4,58.0,29.97,ESE,111,0.0,0.0,95,0.00,,,0.00,Wunderground v.1.15,2014-10-01 07:50:00,
2014-10-01 03:51:00,59.3,57.9,29.97,ESE,111,0.0,0.0,95,0.00,,,0.00,Wunderground v.1.15,2014-10-01 07:51:00,
2014-10-01 03:56:00,59.3,57.9,29.97,ESE,111,0.0,0.0,95,0.00,,,0.00,Wunderground v.1.15,2014-10-01 07:56:00,
2014-10-01 03:59:00,59.3,57.9,29.97,ESE,111,0.0,0.0,95,0.00,,,0.00,Wunderground v.1.15,2014-10-01 07:59:00,
2014-10-01 04:03:00,59.2,57.8,29.97,ESE,111,0.0,0.0,95,0.00,,,0.00,Wunderground v.1.15,2014-10-01 08:03:00,
2014-10-01 04:06:00,59.2,57.8,29.97,ESE,111,0.0,0.0,95,0.00,,,0.00,Wunderground v.1.15,2014-10-01 08:06:00,
2014-10-01 04:09:00,59.1,57.7,29.97,ESE,111,0.0,0.0,95,0.00,,,0.00,Wunderground v.1.15,2014-10-01 08:09:00,
2014-10-01 04:15:00,59.1,57.7,29.97,ESE,111,0.0,0.0,95,0.00,,,0.00,Wunderground v.1.15,2014-10-01 08:15:00,
2014-10-01 04:17:00,59.1,57.7,29.97,ESE,111,0.0,0.0,95,0.00,,,0.00,Wunderground v.1.15,2014-10-01 08:17:00,
2014-10-01 04:23:00,59.0,57.6,29.97,ESE,111,0.0,0.0,95,0.00,,,0.00,Wunderground v.1.15,2014-10-01 08:23:00,
2014-10-01 04:24:00,59.0,57.6,29.97,ESE,111,0.0,0.0,95,0.00,,,0.00,Wunderground v.1.15,2014-10-01 08:24:00,
2014-10-01 04:28:00,58.9,57.5,29.97,ESE,111,0.0,0.0,95,0.00,,,0.00,Wunderground v.1.15,2014-10-01 08:28:00,
2014-10-01 04:30:00,58.9,57.5,29.97,ESE,111,0.0,0.0,95,0.00,,,0.00,Wunderground v.1.15,2014-10-01 08:30:00,
2014-10-01 04:31:00,58.9,57.5,29.97,ESE,111,0.0,0.0,95,0.00,,,0.00,Wunderground v.1.15,2014-10-01 08:31:00,
2014-10-01 04:33:00,58.9,57.5,29.97,ESE,111,0.0,0.0,95,0.00,,,0.00,Wunderground v.1.15,2014-10-01 08:33:00,
2014-10-01 04:35:00,58.8,57.4,29.97,ESE,111,0.0,0.0,95,0.00,,,0.00,Wunderground v.1.15,2014-10-01 08:35:00,
2014-10-01 04:39:00,58.7,57.3,29.97,ESE,111,0.0,0.0,95,0.00,,,0.00,Wunderground v.1.15,2014-10-01 08:39:00,
2014-10-01 04:41:00,58.7,57.3,29.97,ESE,111,0.0,0.0,95,0.00,,,0.00,Wunderground v.1.15,2014-10-01 08:41:00,
2014-10-01 04:43:00,58.7,57.3,29.97,ESE,111,0.0,0.0,95,0.00,,,0.00,Wunderground v.1.15,2014-10-01 08:43:00,
2014-10-01 04:49:00,58.7,57.3,29.97,ESE,111,0.0,0.0,95,0.00,,,0.00,Wunderground v.1.15,2014-10-01 08:49:00,
2014-10-01 04:51:00,58.8,57.4,29.97,ESE,111,0.0,0.0,95,0.00,,,0.00,Wunderground v.1.15,2014-10-01 08:51:00,
2014-10-01 04:54:00,58.7,57.3,29.97,ESE,111,0.0,0.0,95,0.00,,,0.00,Wunderground v.1.15,2014-10-01 08:54:00,
2014-10-01 04:58:00,58.6,57.2,29.97,ESE,111,0.0,0.0,95,0.00,,,0.00,Wunderground v.1.15,2014-10-01 08:58:00,
2014-10-01 05:01:00,58.6,57.2,29.97,ESE,111,0.0,0.0,95,0.00,,,0.00,Wunderground v.1.15,2014-10-01 09:01:00,
2014-10-01 05:02:00,58.6,57.2,29.97,ESE,111,0.0,0.0,95,0.00,,,0.00,Wunderground v.1.15,2014-10-01 09:02:00,
2014-10-01 05:04:00,58.6,57.2,29.97,ESE,111,0.0,0.0,95,0.00,,,0.00,Wunderground v.1.15,2014-10-01 09:04:00,
2014-10-01 05:08:00,58.5,57.1,29.97,ESE,111,0.0,0.0,95,0.00,,,0.00,Wunderground v.1.15,2014-10-01 09:08:00,
2014-10-01 05:10:00,58.4,57.0,29.97,ESE,111,0.0,0.0,95,0.00,,,0.00,Wunderground v.1.15,2014-10-01 09:10:00,
2014-10-01 05:13:00,58.4,57.0,29.97,ESE,111,0.0,0.0,95,0.00,,,0.00,Wunderground v.1.15,2014-10-01 09:13:00,
2014-10-01 05:14:00,58.4,57.0,29.97,ESE,111,0.0,0.0,95,0.00,,,0.00,Wunderground v.1.15,2014-10-01 09:14:00,
2014-10-01 05:19:00,58.3,56.9,29.97,ESE,111,0.0,0.0,95,0.00,,,0.00,Wunderground v.1.15,2014-10-01 09:19:00,
2014-10-01 05:20:00,58.3,56.9,29.97,ESE,111,0.0,0.0,95,0.00,,,0.00,Wunderground v.1.15,2014-10-01 09:20:00,
2014-10-01 05:21:00,58.3,56.9,29.97,ESE,111,0.0,0.0,95,0.00,,,0.00,Wunderground v.1.15,2014-10-01 09:21:00,
2014-10-01 05:25:00,58.3,56.9,29.98,ESE,111,0.0,0.0,95,0.00,,,0.00,Wunderground v.1.15,2014-10-01 09:25:00,
2014-10-01 05:27:00,58.3,57.2,29.97,ESE,111,0.0,0.0,96,0.00,,,0.00,Wunderground v.1.15,2014-10-01 09:27:00,
2014-10-01 05:31:00,58.3,57.2,29.97,ESE,111,0.0,0.0,96,0.00,,,0.00,Wunderground v.1.15,2014-10-01 09:31:00,
2014-10-01 05:33:00,58.3,57.2,29.97,ESE,111,0.0,0.0,96,0.00,,,0.00,Wunderground v.1.15,2014-10-01 09:33:00,
2014-10-01 05:34:00,58.2,57.1,29.97,ESE,111,0.0,0.0,96,0.00,,,0.00,Wunderground v.1.15,2014-10-01 09:34:00,
2014-10-01 05:38:00,58.1,56.7,29.97,ESE,111,0.0,0.0,95,0.00,,,0.00,Wunderground v.1.15,2014-10-01 09:38:00,
2014-10-01 05:40:00,58.1,56.7,29.97,ESE,111,0.0,0.0,95,0.00,,,0.00,Wunderground v.1.15,2014-10-01 09:40:00,
2014-10-01 05:41:00,58.1,57.0,29.97,ESE,111,0.0,0.0,96,0.00,,,0.00,Wunderground v.1.15,2014-10-01 09:41:00,
2014-10-01 05:46:00,58.0,56.9,29.97,ESE,111,0.0,0.0,96,0.00,,,0.00,Wunderground v.1.15,2014-10-01 09:46:00,
2014-10-01 05:47:00,58.0,56.9,29.97,ESE,111,0.0,0.0,96,0.00,,,0.00,Wunderground v.1.15,2014-10-01 09:47:00,
2014-10-01 05:48:00,58.0,56.9,29.97,ESE,111,0.0,0.0,96,0.00,,,0.00,Wunderground v.1.15,2014-10-01 09:48:00,
2014-10-01 05:50:00,58.0,56.9,29.97,ESE,111,0.0,0.0,96,0.00,,,0.00,Wunderground v.1.15,2014-10-01 09:50:00,
2014-10-01 05:54:00,58.1,57.0,29.97,ESE,111,0.0,0.0,96,0.00,,,0.00,Wunderground v.1.15,2014-10-01 09:54:00,
2014-10-01 05:56:00,58.1,57.0,29.97,ESE,111,0.0,0.0,96,0.00,,,0.00,Wunderground v.1.15,2014-10-01 09:56:00,
2014-10-01 05:59:00,58.0,56.9,29.97,ESE,111,0.0,0.0,96,0.00,,,0.00,Wunderground v.1.15,2014-10-01 09:59:00,
2014-10-01 06:02:00,58.0,56.9,29.97,ESE,111,0.0,0.0,96,0.00,,,0.00,Wunderground v.1.15,2014-10-01 10:02:00,
2014-10-01 06:05:00,58.0,56.9,29.97,ESE,111,0.0,0.0,96,0.00,,,0.00,Wunderground v.1.15,2014-10-01 10:05:00,
2014-10-01 06:08:00,58.0,56.9,29.97,East,100,0.0,0.0,96,0.00,,,0.00,Wunderground v.1.15,2014-10-01 10:08:00,
2014-10-01 06:12:00,58.1,57.0,29.98,East,100,0.0,0.0,96,0.00,,,0.00,Wunderground v.1.15,2014-10-01 10:12:00,
2014-10-01 06:14:00,58.0,56.9,29.98,East,100,0.0,0.0,96,0.00,,,0.00,Wunderground v.1.15,2014-10-01 10:14:00,
2014-10-01 06:15:00,58.1,57.0,29.98,East,100,0.0,0.0,96,0.00,,,0.00,Wunderground v.1.15,2014-10-01 10:15:00,
2014-10-01 06:18:00,58.0,56.9,29.98,East,100,0.0,0.0,96,0.00,,,0.00,Wunderground v.1.15,2014-10-01 10:18:00,
2014-10-01 06:21:00,57.9,56.8,29.98,East,100,0.0,0.0,96,0.00,,,0.00,Wunderground v.1.15,2014-10-01 10:21:00,
2014-10-01 06:26:00,57.8,56.7,29.98,East,100,0.0,0.0,96,0.00,,,0.00,Wunderground v.1.15,2014-10-01 10:26:00,
2014-10-01 06:27:00,57.7,56.6,29.98,East,100,0.0,0.0,96,0.00,,,0.00,Wunderground v.1.15,2014-10-01 10:27:00,
2014-10-01 06:31:00,57.7,56.6,29.98,East,100,0.0,0.0,96,0.00,,,0.00,Wunderground v.1.15,2014-10-01 10:31:00,
2014-10-01 06:33:00,57.7,56.6,29.98,East,100,0.0,0.0,96,0.00,,,0.00,Wunderground v.1.15,2014-10-01 10:33:00,
2014-10-01 06:38:00,57.7,56.6,29.98,East,100,0.0,0.0,96,0.00,,,0.00,Wunderground v.1.15,2014-10-01 10:38:00,
2014-10-01 06:39:00,57.6,56.5,29.98,East,100,0.0,0.0,96,0.00,,,0.00,Wunderground v.1.15,2014-10-01 10:39:00,
2014-10-01 06:41:00,57.6,56.5,29.98,East,100,0.0,0.0,96,0.00,,,0.00,Wunderground v.1.15,2014-10-01 10:41:00,
2014-10-01 06:44:00,57.6,56.5,29.98,East,100,0.0,0.0,96,0.00,,,0.00,Wunderground v.1.15,2014-10-01 10:44:00,
2014-10-01 06:46:00,57.5,56.4,29.98,East,100,0.0,0.0,96,0.00,,,0.00,Wunderground v.1.15,2014-10-01 10:46:00,
2014-10-01 06:49:00,57.5,56.4,29.98,East,100,0.0,0.0,96,0.00,,,0.00,Wunderground v.1.15,2014-10-01 10:49:00,
2014-10-01 06:51:00,57.4,56.3,29.98,East,100,0.0,0.0,96,0.00,,,0.00,Wunderground v.1.15,2014-10-01 10:51:00,
2014-10-01 06:53:00,57.3,56.2,29.98,East,100,0.0,0.0,96,0.00,,,0.00,Wunderground v.1.15,2014-10-01 10:53:00,
2014-10-01 06:54:00,57.3,56.2,29.98,East,100,0.0,0.0,96,0.00,,,0.00,Wunderground v.1.15,2014-10-01 10:54:00,
2014-10-01 06:57:00,57.3,56.2,29.98,East,100,0.0,1.0,96,0.00,,,0.00,Wunderground v.1.15,2014-10-01 10:57:00,
2014-10-01 07:01:00,57.4,56.3,29.99,East,100,0.0,1.0,96,0.00,,,0.00,Wunderground v.1.15,2014-10-01 11:01:00,
2014-10-01 07:03:00,57.3,56.2,29.99,East,100,0.0,1.0,96,0.00,,,0.00,Wunderground v.1.15,2014-10-01 11:03:00,
2014-10-01 07:08:00,57.2,56.1,29.99,East,100,0.0,1.0,96,0.00,,,0.00,Wunderground v.1.15,2014-10-01 11:08:00,
2014-10-01 07:09:00,57.2,56.1,29.99,East,100,0.0,1.0,96,0.00,,,0.00,Wunderground v.1.15,2014-10-01 11:09:00,
2014-10-01 07:10:00,57.2,56.1,29.99,East,100,0.0,1.0,96,0.00,,,0.00,Wunderground v.1.15,2014-10-01 11:10:00,
2014-10-01 07:14:00,57.2,56.1,29.99,East,100,0.0,1.0,96,0.00,,,0.00,Wunderground v.1.15,2014-10-01 11:14:00,
2014-10-01 07:19:00,57.2,56.1,29.99,East,100,0.0,1.0,96,0.00,,,0.00,Wunderground v.1.15,2014-10-01 11:19:00,
2014-10-01 07:21:00,57.2,56.1,29.99,East,100,0.0,0.0,96,0.00,,,0.00,Wunderground v.1.15,2014-10-01 11:21:00,
2014-10-01 07:25:00,57.2,56.1,29.99,East,100,0.0,0.0,96,0.00,,,0.00,Wunderground v.1.15,2014-10-01 11:25:00,
2014-10-01 07:27:00,57.2,56.1,29.99,East,100,0.0,0.0,96,0.00,,,0.00,Wunderground v.1.15,2014-10-01 11:27:00,
2014-10-01 07:29:00,57.2,56.1,29.99,East,100,0.0,0.0,96,0.00,,,0.00,Wunderground v.1.15,2014-10-01 11:29:00,
2014-10-01 07:32:00,57.2,56.1,29.99,East,100,0.0,0.0,96,0.00,,,0.00,Wunderground v.1.15,2014-10-01 11:32:00,
2014-10-01 07:33:00,57.2,56.1,29.99,East,100,0.0,0.0,96,0.00,,,0.00,Wunderground v.1.15,2014-10-01 11:33:00,
2014-10-01 07:37:00,57.2,56.1,29.99,East,100,0.0,0.0,96,0.00,,,0.00,Wunderground v.1.15,2014-10-01 11:37:00,
2014-10-01 07:40:00,57.2,56.1,29.99,East,100,0.0,0.0,96,0.00,,,0.00,Wunderground v.1.15,2014-10-01 11:40:00,
2014-10-01 07:42:00,57.2,56.1,29.99,East,100,0.0,0.0,96,0.00,,,0.00,Wunderground v.1.15,2014-10-01 11:42:00,
2014-10-01 07:45:00,57.2,56.1,29.99,East,100,0.0,0.0,96,0.00,,,0.00,Wunderground v.1.15,2014-10-01 11:45:00,
2014-10-01 07:46:00,57.2,56.1,29.99,East,100,0.0,0.0,96,0.00,,,0.00,Wunderground v.1.15,2014-10-01 11:46:00,
2014-10-01 07:47:00,57.1,56.0,29.99,East,100,0.0,0.0,96,0.00,,,0.00,Wunderground v.1.15,2014-10-01 11:47:00,
2014-10-01 07:50:00,57.1,56.0,30.00,East,100,0.0,0.0,96,0.00,,,0.00,Wunderground v.1.15,2014-10-01 11:50:00,
2014-10-01 07:52:00,57.1,56.0,29.99,East,100,0.0,0.0,96,0.00,,,0.00,Wunderground v.1.15,2014-10-01 11:52:00,
2014-10-01 07:57:00,57.1,56.0,30.00,East,100,0.0,0.0,96,0.00,,,0.00,Wunderground v.1.15,2014-10-01 11:57:00,
2014-10-01 07:59:00,57.1,56.0,30.00,East,100,0.0,0.0,96,0.00,,,0.00,Wunderground v.1.15,2014-10-01 11:59:00,
2014-10-01 08:02:00,57.1,56.0,30.00,East,100,0.0,0.0,96,0.00,,,0.00,Wunderground v.1.15,2014-10-01 12:02:00,
2014-10-01 08:05:00,57.1,56.0,30.00,East,100,0.0,0.0,96,0.00,,,0.00,Wunderground v.1.15,2014-10-01 12:05:00,
2014-10-01 08:08:00,57.1,56.0,30.00,East,100,0.0,0.0,96,0.00,,,0.00,Wunderground v.1.15,2014-10-01 12:08:00,
2014-10-01 08:09:00,57.1,56.0,30.00,East,100,0.0,0.0,96,0.00,,,0.00,Wunderground v.1.15,2014-10-01 12:09:00,
2014-10-01 08:12:00,57.1,56.0,30.00,East,100,0.0,0.0,96,0.00,,,0.00,Wunderground v.1.15,2014-10-01 12:12:00,
2014-10-01 08:14:00,57.1,56.0,30.00,East,100,0.0,0.0,96,0.00,,,0.00,Wunderground v.1.15,2014-10-01 12:14:00,
2014-10-01 08:18:00,57.1,56.0,30.00,East,100,0.0,0.0,96,0.00,,,0.00,Wunderground v.1.15,2014-10-01 12:18:00,
2014-10-01 08:21:00,57.1,56.0,30.00,East,100,0.0,0.0,96,0.00,,,0.00,Wunderground v.1.15,2014-10-01 12:21:00,
2014-10-01 08:26:00,57.1,56.0,30.00,East,100,0.0,0.0,96,0.00,,,0.00,Wunderground v.1.15,2014-10-01 12:26:00,
2014-10-01 08:27:00,57.1,56.0,30.00,East,100,0.0,0.0,96,0.00,,,0.00,Wunderground v.1.15,2014-10-01 12:27:00,
2014-10-01 08:31:00,57.1,56.0,30.00,East,100,0.0,0.0,96,0.00,,,0.00,Wunderground v.1.15,2014-10-01 12:31:00,
2014-10-01 08:34:00,57.1,56.0,30.00,East,100,0.0,0.0,96,0.00,,,0.00,Wunderground v.1.15,2014-10-01 12:34:00,
2014-10-01 08:35:00,57.1,56.0,30.00,East,100,0.0,0.0,96,0.00,,,0.00,Wunderground v.1.15,2014-10-01 12:35:00,
2014-10-01 08:37:00,57.1,56.0,30.00,East,100,0.0,0.0,96,0.00,,,0.00,Wunderground v.1.15,2014-10-01 12:37:00,
2014-10-01 08:40:00,57.1,56.0,30.00,East,100,0.0,0.0,96,0.00,,,0.00,Wunderground v.1.15,2014-10-01 12:40:00,
2014-10-01 08:45:00,57.1,56.0,30.00,East,100,0.0,0.0,96,0.00,,,0.00,Wunderground v.1.15,2014-10-01 12:45:00,
2014-10-01 08:51:00,57.3,56.2,30.01,East,100,0.0,0.0,96,0.00,,,0.00,Wunderground v.1.15,2014-10-01 12:51:00,
2014-10-01 08:54:00,57.4,56.6,30.01,East,100,0.0,0.0,97,0.00,,,0.00,Wunderground v.1.15,2014-10-01 12:54:00,
2014-10-01 08:57:00,57.5,56.7,30.01,East,100,0.0,0.0,97,0.00,,,0.00,Wunderground v.1.15,2014-10-01 12:57:00,
2014-10-01 08:59:00,57.6,56.8,30.01,East,100,0.0,0.0,97,0.00,,,0.00,Wunderground v.1.15,2014-10-01 12:59:00,
2014-10-01 09:04:00,57.7,56.9,30.01,East,100,0.0,0.0,97,0.00,,,0.00,Wunderground v.1.15,2014-10-01 13:04:00,
2014-10-01 09:06:00,57.8,57.0,30.01,East,100,0.0,0.0,97,0.00,,,0.00,Wunderground v.1.15,2014-10-01 13:06:00,
2014-10-01 09:07:00,57.8,57.0,30.01,East,100,0.0,0.0,97,0.00,,,0.00,Wunderground v.1.15,2014-10-01 13:07:00,
2014-10-01 09:10:00,58.0,57.2,30.01,East,100,0.0,0.0,97,0.00,,,0.00,Wunderground v.1.15,2014-10-01 13:10:00,
2014-10-01 09:14:00,58.2,57.4,30.01,East,100,0.0,0.0,97,0.00,,,0.00,Wunderground v.1.15,2014-10-01 13:14:00,
2014-10-01 09:16:00,58.2,57.4,30.01,East,100,0.0,0.0,97,0.00,,,0.00,Wunderground v.1.15,2014-10-01 13:16:00,
2014-10-01 09:19:00,58.4,57.6,30.01,East,100,0.0,0.0,97,0.00,,,0.00,Wunderground v.1.15,2014-10-01 13:19:00,
2014-10-01 09:21:00,58.5,57.7,30.01,East,100,0.0,0.0,97,0.00,,,0.00,Wunderground v.1.15,2014-10-01 13:21:00,
2014-10-01 09:25:00,58.8,58.0,30.01,East,100,0.0,0.0,97,0.00,,,0.00,Wunderground v.1.15,2014-10-01 13:25:00,
2014-10-01 09:26:00,58.8,58.0,30.01,East,100,0.0,0.0,97,0.00,,,0.00,Wunderground v.1.15,2014-10-01 13:26:00,
2014-10-01 09:27:00,58.9,58.1,30.01,East,100,0.0,0.0,97,0.00,,,0.00,Wunderground v.1.15,2014-10-01 13:27:00,
2014-10-01 09:32:00,59.1,58.2,30.01,NE,53,0.0,1.0,97,0.00,,,0.00,Wunderground v.1.15,2014-10-01 13:32:00,
2014-10-01 09:33:00,59.1,58.2,30.01,NE,53,0.0,1.0,97,0.00,,,0.00,Wunderground v.1.15,2014-10-01 13:33:00,
2014-10-01 09:37:00,59.3,58.4,30.01,ENE,73,0.0,1.0,97,0.00,,,0.00,Wunderground v.1.15,2014-10-01 13:37:00,
2014-10-01 09:39:00,59.3,58.4,30.02,ENE,68,0.0,1.0,97,0.00,,,0.00,Wunderground v.1.15,2014-10-01 13:39:00,
2014-10-01 09:41:00,59.4,58.5,30.02,ENE,68,0.0,1.0,97,0.00,,,0.00,Wunderground v.1.15,2014-10-01 13:41:00,
2014-10-01 09:44:00,59.5,58.6,30.02,ENE,68,0.0,1.0,97,0.00,,,0.00,Wunderground v.1.15,2014-10-01 13:44:00,
2014-10-01 09:46:00,59.5,58.4,30.02,ENE,68,0.0,1.0,96,0.00,,,0.00,Wunderground v.1.15,2014-10-01 13:46:00,
2014-10-01 09:48:00,59.6,58.5,30.02,ENE,68,0.0,1.0,96,0.00,,,0.00,Wunderground v.1.15,2014-10-01 13:48:00,
2014-10-01 09:49:00,59.6,58.5,30.02,ENE,68,0.0,1.0,96,0.00,,,0.00,Wunderground v.1.15,2014-10-01 13:49:00,
2014-10-01 09:55:00,59.8,58.7,30.02,ENE,61,0.0,0.0,96,0.00,,,0.00,Wunderground v.1.15,2014-10-01 13:55:00,
2014-10-01 09:57:00,59.9,58.8,30.02,ENE,61,0.0,0.0,96,0.00,,,0.00,Wunderground v.1.15,2014-10-01 13:57:00,
2014-10-01 09:58:00,60.0,58.9,30.02,ENE,61,0.0,0.0,96,0.00,,,0.00,Wunderground v.1.15,2014-10-01 13:58:00,
2014-10-01 10:00:00,60.1,59.0,30.02,ENE,61,0.0,0.0,96,0.00,,,0.00,Wunderground v.1.15,2014-10-01 14:00:00,
2014-10-01 10:02:00,60.3,59.2,30.02,ENE,61,0.0,0.0,96,0.00,,,0.00,Wunderground v.1.15,2014-10-01 14:02:00,
2014-10-01 10:06:00,60.5,59.1,30.02,SSE,157,0.0,0.0,95,0.00,,,0.00,Wunderground v.1.15,2014-10-01 14:06:00,
2014-10-01 10:08:00,60.6,59.2,30.02,SSE,157,0.0,0.0,95,0.00,,,0.00,Wunderground v.1.15,2014-10-01 14:08:00,
2014-10-01 10:11:00,60.7,59.3,30.02,South,190,0.0,0.0,95,0.00,,,0.00,Wunderground v.1.15,2014-10-01 14:11:00,
2014-10-01 10:12:00,60.8,59.4,30.02,South,190,0.0,0.0,95,0.00,,,0.00,Wunderground v.1.15,2014-10-01 14:12:00,
2014-10-01 10:18:00,61.1,59.4,30.02,South,190,0.0,0.0,94,0.00,,,0.00,Wunderground v.1.15,2014-10-01 14:18:00,
2014-10-01 10:23:00,61.4,59.4,30.02,NE,53,0.0,1.0,93,0.00,,,0.00,Wunderground v.1.15,2014-10-01 14:23:00,
2014-10-01 10:24:00,61.4,59.4,30.02,NE,53,0.0,1.0,93,0.00,,,0.00,Wunderground v.1.15,2014-10-01 14:24:00,
2014-10-01 10:25:00,61.5,59.5,30.03,NE,53,0.0,1.0,93,0.00,,,0.00,Wunderground v.1.15,2014-10-01 14:25:00,
2014-10-01 10:29:00,61.9,59.9,30.03,NE,53,0.0,1.0,93,0.00,,,0.00,Wunderground v.1.15,2014-10-01 14:29:00,
2014-10-01 10:30:00,62.0,60.0,30.03,NE,53,0.0,0.0,93,0.00,,,0.00,Wunderground v.1.15,2014-10-01 14:30:00,
2014-10-01 10:32:00,62.1,60.1,30.03,NE,53,0.0,0.0,93,0.00,,,0.00,Wunderground v.1.15,2014-10-01 14:32:00,
2014-10-01 10:36:00,62.5,60.1,30.03,NE,54,0.0,0.0,92,0.00,,,0.00,Wunderground v.1.15,2014-10-01 14:36:00,
2014-10-01 10:38:00,62.7,60.3,30.03,NE,54,0.0,0.0,92,0.00,,,0.00,Wunderground v.1.15,2014-10-01 14:38:00,
2014-10-01 10:42:00,63.1,60.4,30.03,NE,54,0.0,0.0,91,0.00,,,0.00,Wunderground v.1.15,2014-10-01 14:42:00,
2014-10-01 10:44:00,63.3,60.6,30.03,NE,54,0.0,0.0,91,0.00,,,0.00,Wunderground v.1.15,2014-10-01 14:44:00,
2014-10-01 10:45:00,63.5,60.8,30.03,NE,54,0.0,0.0,91,0.00,,,0.00,Wunderground v.1.15,2014-10-01 14:45:00,
2014-10-01 10:48:00,63.8,60.8,30.03,NE,54,0.0,0.0,90,0.00,,,0.00,Wunderground v.1.15,2014-10-01 14:48:00,
2014-10-01 10:51:00,64.3,61.0,30.03,NE,56,0.0,0.0,89,0.00,,,0.00,Wunderground v.1.15,2014-10-01 14:51:00,
2014-10-01 10:53:00,64.5,61.2,30.03,NE,56,0.0,0.0,89,0.00,,,0.00,Wunderground v.1.15,2014-10-01 14:53:00,
2014-10-01 10:57:00,64.9,61.6,30.03,NE,56,0.0,2.0,89,0.00,,,0.00,Wunderground v.1.15,2014-10-01 14:57:00,
2014-10-01 10:58:00,65.0,61.7,30.03,NE,56,0.0,2.0,89,0.00,,,0.00,Wunderground v.1.15,2014-10-01 14:58:00,
2014-10-01 11:03:00,65.6,61.6,30.03,SSE,150,0.0,2.0,87,0.00,,,0.00,Wunderground v.1.15,2014-10-01 15:03:00,
2014-10-01 11:05:00,65.7,61.7,30.02,SSE,150,0.0,2.0,87,0.00,,,0.00,Wunderground v.1.15,2014-10-01 15:05:00,
2014-10-01 11:06:00,65.9,61.9,30.02,SSE,150,0.0,2.0,87,0.00,,,0.00,Wunderground v.1.15,2014-10-01 15:06:00,
2014-10-01 11:10:00,66.3,62.0,30.02,SSE,150,0.0,2.0,86,0.00,,,0.00,Wunderground v.1.15,2014-10-01 15:10:00,
2014-10-01 11:12:00,66.5,62.2,30.03,SSE,150,0.0,2.0,86,0.00,,,0.00,Wunderground v.1.15,2014-10-01 15:12:00,
2014-10-01 11:17:00,67.0,62.7,30.02,SSE,153,0.0,2.0,86,0.00,,,0.00,Wunderground v.1.15,2014-10-01 15:17:00,
2014-10-01 11:19:00,67.2,62.5,30.02,SSE,153,0.0,2.0,85,0.00,,,0.00,Wunderground v.1.15,2014-10-01 15:19:00,
2014-10-01 11:23:00,67.9,63.2,30.02,SSE,153,0.0,0.0,85,0.00,,,0.00,Wunderground v.1.15,2014-10-01 15:23:00,
2014-10-01 11:25:00,68.1,62.7,30.02,SSE,153,0.0,0.0,83,0.00,,,0.00,Wunderground v.1.15,2014-10-01 15:25:00,
2014-10-01 11:28:00,68.5,63.1,30.02,SSE,153,0.0,0.0,83,0.00,,,0.00,Wunderground v.1.15,2014-10-01 15:28:00,
2014-10-01 11:30:00,68.7,63.0,30.02,NE,51,0.0,0.0,82,0.00,,,0.00,Wunderground v.1.15,2014-10-01 15:30:00,
2014-10-01 11:34:00,69.2,63.5,30.02,South,190,0.0,2.0,82,0.00,,,0.00,Wunderground v.1.15,2014-10-01 15:34:00,
2014-10-01 11:35:00,69.3,63.6,30.02,South,190,0.0,2.0,82,0.00,,,0.00,Wunderground v.1.15,2014-10-01 15:35:00,
2014-10-01 11:40:00,70.1,64.0,30.02,South,190,0.0,0.0,81,0.00,,,0.00,Wunderground v.1.15,2014-10-01 15:40:00,
2014-10-01 11:42:00,70.5,64.0,30.02,South,190,0.0,0.0,80,0.00,,,0.00,Wunderground v.1.15,2014-10-01 15:42:00,
2014-10-01 11:43:00,70.7,63.9,30.02,South,190,0.0,0.0,79,0.00,,,0.00,Wunderground v.1.15,2014-10-01 15:43:00,
2014-10-01 11:46:00,71.0,64.2,30.02,SSW,192,0.0,1.0,79,0.00,,,0.00,Wunderground v.1.15,2014-10-01 15:46:00,
2014-10-01 11:48:00,71.1,64.3,30.02,SSW,192,0.0,1.0,79,0.00,,,0.00,Wunderground v.1.15,2014-10-01 15:48:00,
2014-10-01 11:49:00,71.3,64.4,30.02,SSW,192,0.0,1.0,79,0.00,,,0.00,Wunderground v.1.15,2014-10-01 15:49:00,
2014-10-01 11:50:00,71.3,64.4,30.02,SSW,192,0.0,0.0,79,0.00,,,0.00,Wunderground v.1.15,2014-10-01 15:50:00,
2014-10-01 11:52:00,71.6,64.7,30.02,SSW,192,0.0,0.0,79,0.00,,,0.00,Wunderground v.1.15,2014-10-01 15:52:00,
2014-10-01 11:55:00,71.9,64.3,30.02,SSW,192,0.0,0.0,77,0.00,,,0.00,Wunderground v.1.15,2014-10-01 15:55:00,
2014-10-01 11:57:00,72.0,64.0,30.02,SSE,147,0.0,2.0,76,0.00,,,0.00,Wunderground v.1.15,2014-10-01 15:57:00,
2014-10-01 11:58:00,72.0,64.0,30.02,SSE,147,0.0,2.0,76,0.00,,,0.00,Wunderground v.1.15,2014-10-01 15:58:00,
2014-10-01 12:02:00,72.4,65.2,30.02,SSE,147,0.0,2.0,78,0.00,,,0.00,Wunderground v.1.15,2014-10-01 16:02:00,
2014-10-01 12:03:00,72.5,65.2,30.01,SSE,147,0.0,2.0,78,0.00,,,0.00,Wunderground v.1.15,2014-10-01 16:03:00,
2014-10-01 12:04:00,72.6,65.3,30.02,SSE,147,0.0,2.0,78,0.00,,,0.00,Wunderground v.1.15,2014-10-01 16:04:00,
2014-10-01 12:08:00,73.2,64.8,30.01,SSE,148,0.0,2.0,75,0.00,,,0.00,Wunderground v.1.15,2014-10-01 16:08:00,
2014-10-01 12:10:00,73.5,65.5,30.01,SSE,148,0.0,2.0,76,0.00,,,0.00,Wunderground v.1.15,2014-10-01 16:10:00,
2014-10-01 12:15:00,74.2,65.4,30.01,SW,223,0.0,2.0,74,0.00,,,0.00,Wunderground v.1.15,2014-10-01 16:15:00,
2014-10-01 12:16:00,74.2,65.0,30.01,SW,223,0.0,2.0,73,0.00,,,0.00,Wunderground v.1.15,2014-10-01 16:16:00,
2014-10-01 12:18:00,74.5,65.3,30.01,SW,223,0.0,2.0,73,0.00,,,0.00,Wunderground v.1.15,2014-10-01 16:18:00,
2014-10-01 12:23:00,75.4,65.3,30.01,SW,223,0.0,0.0,71,0.00,,,0.00,Wunderground v.1.15,2014-10-01 16:23:00,
2014-10-01 12:26:00,75.9,65.0,30.01,South,191,0.0,2.0,69,0.00,,,0.00,Wunderground v.1.15,2014-10-01 16:26:00,
2014-10-01 12:27:00,76.2,65.3,30.01,South,190,0.0,2.0,69,0.00,,,0.00,Wunderground v.1.15,2014-10-01 16:27:00,
2014-10-01 12:33:00,76.8,66.7,30.01,SSW,200,1.0,1.0,71,0.00,,,0.00,Wunderground v.1.15,2014-10-01 16:33:00,
2014-10-01 12:34:00,76.9,66.4,30.01,NNE,28,1.0,1.0,70,0.00,,,0.00,Wunderground v.1.15,2014-10-01 16:34:00,
2014-10-01 12:38:00,77.1,66.1,30.01,NNE,24,0.0,1.0,69,0.00,,,0.00,Wunderground v.1.15,2014-10-01 16:38:00,
2014-10-01 12:43:00,77.9,66.5,30.01,NNE,23,0.0,0.0,68,0.00,,,0.00,Wunderground v.1.15,2014-10-01 16:43:00,
2014-10-01 12:44:00,78.1,66.7,30.01,NNE,23,0.0,0.0,68,0.00,,,0.00,Wunderground v.1.15,2014-10-01 16:44:00,
2014-10-01 12:48:00,78.3,64.7,30.01,South,178,0.0,2.0,63,0.00,,,0.00,Wunderground v.1.15,2014-10-01 16:48:00,
2014-10-01 12:49:00,78.5,64.9,30.01,South,178,0.0,2.0,63,0.00,,,0.00,Wunderground v.1.15,2014-10-01 16:49:00,
2014-10-01 12:53:00,78.8,65.6,30.01,SSW,206,1.0,2.0,64,0.00,,,0.00,Wunderground v.1.15,2014-10-01 16:53:00,
2014-10-01 12:54:00,78.8,65.6,30.01,SSW,206,1.0,2.0,64,0.00,,,0.00,Wunderground v.1.15,2014-10-01 16:54:00,
2014-10-01 12:56:00,78.6,64.9,30.00,SSW,206,1.0,2.0,63,0.00,,,0.00,Wunderground v.1.15,2014-10-01 16:56:00,
2014-10-01 12:59:00,78.5,64.4,30.00,SSW,206,0.0,2.0,62,0.00,,,0.00,Wunderground v.1.15,2014-10-01 16:59:00,
2014-10-01 13:00:00,78.4,64.3,30.00,SSW,206,0.0,2.0,62,0.00,,,0.00,Wunderground v.1.15,2014-10-01 17:00:00,
2014-10-01 13:01:00,78.4,64.8,30.00,West,261,0.0,2.0,63,0.00,,,0.00,Wunderground v.1.15,2014-10-01 17:01:00,
2014-10-01 13:04:00,78.6,64.5,30.00,South,180,0.0,2.0,62,0.00,,,0.00,Wunderground v.1.15,2014-10-01 17:04:00,
2014-10-01 13:05:00,78.7,64.1,30.00,South,180,0.0,2.0,61,0.00,,,0.00,Wunderground v.1.15,2014-10-01 17:05:00,
2014-10-01 13:07:00,78.9,65.2,30.00,South,180,0.0,2.0,63,0.00,,,0.00,Wunderground v.1.15,2014-10-01 17:07:00,
2014-10-01 13:12:00,79.9,63.8,30.00,South,180,0.0,2.0,58,0.00,,,0.00,Wunderground v.1.15,2014-10-01 17:12:00,
2014-10-01 13:13:00,80.0,63.9,30.00,ENE,72,0.0,2.0,58,0.00,,,0.00,Wunderground v.1.15,2014-10-01 17:13:00,
2014-10-01 13:16:00,80.2,64.1,30.00,ENE,72,0.0,2.0,58,0.00,,,0.00,Wunderground v.1.15,2014-10-01 17:16:00,
2014-10-01 13:19:00,80.3,64.7,30.00,ENE,72,0.0,2.0,59,0.00,,,0.00,Wunderground v.1.15,2014-10-01 17:19:00,
2014-10-01 13:21:00,80.3,64.7,30.00,South,186,0.0,1.0,59,0.00,,,0.00,Wunderground v.1.15,2014-10-01 17:21:00,
2014-10-01 13:23:00,80.3,65.1,30.00,South,186,0.0,1.0,60,0.00,,,0.00,Wunderground v.1.15,2014-10-01 17:23:00,